RH
17 18 22 19 18 18 17 14 17 14 12 19 16 40 42 60 60 71 27 29 28 29 29 29 30 30 33 39 51 57 63 70 66 64 65 65 61 64 63 61 59 71 68 70
18 20 15 14 14 17 17 17 13 11 13 22 21 35 49 53 61 57 30 31 28 28 28 32 33 32 34 43 52 60 64 71 69 63 67 63 66 57 56 60 64 64 66 71
19 16 13 12 14 14 19 19 15 12 18 18 19 25 40 48 45 30 26 31 26 28 28 30 34 34 34 43 52 60 67 72 71 69 68 71 67 68 61 58 59 62 64 68
17 13 13 14 14 13 16 15 15 12 22 26 17 36 27 16 17 18 20 26 24 26 27 26 30 32 34 40 46 59 66 72 70 73 68 74 63 60 56 60 58 61 67 66
20 16 15 15 14 11 13 10 15 14 12 14 21 20 15 16 17 15 17 20 21 23 24 25 26 32 31 35 42 52 67 72 73 73 76 66 69 57 59 58 67 73 75 70
17 13 12 10 10 10 9 9 11 12 12 18 15 20 20 15 19 14 14 16 20 20 23 24 25 28 30 31 39 46 66 75 75 76 75 80 73 69 57 62 61 62 63 67
17 17 10 7 8 8 8 9 14 16 18 19 12 14 17 12 13 13 14 16 16 19 22 25 27 27 33 34 38 44 67 78 77 75 76 76 78 74 75 72 59 62 56 57
17 20 15 8 9 9 10 9 14 25 18 16 13 17 15 11 10 10 12 13 14 16 21 25 28 28 32 34 40 45 64 75 75 74 79 80 78 69 63 67 56 51 55 53
16 16 10 10 8 8 9 11 7 9 10 12 11 12 10 10 10 10 8 12 14 14 18 22 25 26 29 34 41 45 61 73 75 74 78 81 79 76 70 71 71 63 65 51
14 18 10 9 8 8 8 7 10 9 19 20 11 14 14 14 13 11 9 9 11 14 16 20 22 26 28 30 35 41 53 68 71 71 74 73 77 77 71 74 72 67 69 71
11 15 13 10 12 11 10 10 9 8 10 14 14 10 8 15 13 11 9 10 10 12 15 17 21 24 27 28 31 37 43 60 67 70 73 76 74 76 75 67 70 69 72 73
15 13 18 13 8 8 8 10 10 16 21 11 11 9 8 7 9 9 10 11 10 11 14 17 19 22 25 28 29 33 37 42 58 65 72 74 74 75 75 74 68 69 73 76
27 23 22 18 12 9 10 9 8 9 9 20 14 10 10 8 8 9 10 10 14 16 18 18 18 21 26 28 32 32 36 37 42 59 64 69 73 74 75 76 73 70 73 73
32 29 27 19 20 13 14 10 9 8 15 13 12 11 11 10 10 9 12 12 12 18 18 18 19 19 23 30 36 36 34 33 38 45 56 68 72 74 72 74 75 74 72 75
24 35 26 19 13 13 10 10 10 12 12 14 12 13 13 13 12 12 16 16 17 17 16 21 17 20 27 33 38 38 34 38 36 47 52 63 70 71 73 74 74 74 75 72
31 36 30 30 20 18 17 10 10 10 9 9 9 10 9 11 14 13 15 15 17 17 16 17 20 23 27 32 37 39 38 38 41 48 50 60 67 72 73 74 74 75 76 76
33 35 36 37 25 22 23 17 12 11 10 9 12 13 12 13 15 16 19 16 14 13 17 16 18 25 32 28 37 41 42 40 46 51 55 59 67 70 74 74 76 77 77 76
32 37 36 35 33 42 22 15 14 13 10 8 9 9 9 11 13 16 17 17 13 14 18 20 14 16 20 17 16 35 34 52 52 56 58 61 65 69 73 76 78 79 75 78
23 31 34 36 32 28 21 17 16 16 16 13 12 10 11 12 12 17 13 13 15 18 20 19 13 12 23 19 22 40 37 43 53 56 59 58 62 69 72 76 79 78 77 77
20 25 30 33 36 34 27 15 12 15 22 34 14 13 12 13 16 33 35 28 30 29 30 31 27 24 27 34 20 41 41 49 56 56 57 61 59 67 71 74 79 78 77 76
24 29 31 31 34 26 28 18 16 28 68 40 37 39 38 31 38 36 29 31 30 33 35 38 35 34 40 42 44 49 47 51 52 52 56 61 64 68 71 76 76 78 79 76
45 29 30 30 34 40 26 19 41 49 36 35 37 36 36 36 34 31 31 34 34 40 41 40 41 42 40 43 52 58 62 60 62 60 59 64 70 60 58 76 78 79 82 84
45 43 32 32 28 34 24 27 22 24 29 32 35 29 33 38 38 37 39 39 38 45 49 49 49 50 50 52 61 60 69 66 64 65 68 69 70 69 67 76 80 77 81 76
35 32 41 37 29 26 23 22 23 21 23 23 25 26 27 36 33 34 35 38 41 46 53 55 56 51 56 57 57 66 67 65 70 74 72 72 73 76 73 63 68 70 72 74
29 31 33 33 31 28 23 21 20 22 22 22 22 23 24 30 33 32 36 41 42 51 56 65 65 65 63 59 60 57 63 68 69 70 69 72 65 77 73 76 82 70 80 77
36 47 51 52 45 47 48 40 30 26 24 24 24 24 23 27 32 33 38 40 44 55 66 72 69 65 66 66 63 68 74 70 73 71 66 61 57 62 63 80 83 99 98 99
Wind_Speed
24 19 24 27 24 22 20 22 23 21 21 24 20 21 25 13 4 16 23 24 23 22 21 19 19 18 18 17 16 16 11 10 12 10 9 7 7 5 4 4 5 9 4 5
22 28 25 25 24 26 27 25 23 21 12 6 21 26 26 24 33 36 21 18 23 22 21 20 20 20 19 19 18 17 14 13 11 9 8 7 6 6 6 5 5 5 7 5
28 17 26 26 26 27 28 27 24 21 17 11 22 10 27 30 25 29 25 29 23 23 23 21 22 20 20 20 19 18 16 13 12 11 6 6 5 4 6 6 6 7 6 6
29 26 28 27 28 27 28 28 27 24 18 15 20 10 26 16 20 23 25 23 24 25 22 23 23 21 21 19 19 19 18 15 14 12 11 9 8 8 6 6 6 7 11 8
28 28 31 28 28 27 25 25 25 25 19 17 20 16 13 20 19 21 22 25 24 26 26 27 24 24 23 21 20 18 18 17 15 15 11 11 10 8 6 5 8 8 9 9
31 26 29 30 22 27 24 22 24 23 18 17 22 18 19 16 19 20 21 22 26 25 26 25 25 22 20 19 20 19 19 18 17 16 17 12 14 10 9 7 6 7 6 9
27 34 29 25 21 25 24 23 15 17 18 16 21 20 13 16 23 18 21 21 21 25 24 24 25 23 22 21 21 19 20 19 19 18 18 18 12 15 11 8 8 7 8 8
24 26 34 23 28 23 28 25 14 24 18 17 21 21 18 21 16 20 21 24 22 21 23 25 25 23 23 24 23 22 22 22 21 20 19 17 15 9 12 11 8 9 6 8
24 29 22 34 24 25 26 27 22 20 21 18 18 22 24 25 22 19 12 22 24 22 21 24 24 24 24 22 22 23 23 23 23 23 18 18 17 17 13 13 9 7 8 7
29 21 31 30 26 29 29 21 22 17 22 21 19 22 18 23 20 25 20 16 17 23 22 24 23 24 22 24 22 23 21 23 23 22 20 18 18 18 16 11 13 12 8 6
30 28 24 30 33 26 21 23 25 20 16 15 15 14 16 24 25 20 19 19 16 21 22 21 22 23 23 24 22 22 21 22 21 21 20 20 19 18 17 16 13 13 11 9
18 25 22 30 29 31 27 28 25 13 20 16 14 9 15 11 23 18 15 20 19 16 21 20 21 23 23 22 23 23 22 21 22 20 19 19 17 17 18 17 16 14 13 11
15 10 18 27 26 30 33 30 29 22 17 20 15 12 7 9 9 14 17 15 11 15 13 20 21 22 22 22 21 23 22 23 20 20 19 18 19 19 18 18 18 15 15 15
8 11 20 19 20 18 27 30 29 29 17 15 17 13 10 9 6 0 8 12 12 13 13 18 19 21 21 22 20 20 22 22 22 20 21 20 20 19 17 17 18 18 17 16
16 16 17 23 23 25 28 27 28 30 22 20 18 20 14 13 11 5 11 8 5 11 9 5 11 19 21 19 21 19 19 20 20 21 21 21 18 17 17 17 17 17 17 17
17 12 12 18 22 21 25 32 31 29 28 23 24 18 12 15 16 9 10 9 8 6 6 4 2 0 3 14 15 19 19 18 18 18 20 19 19 18 18 18 18 16 17 17
12 12 11 16 18 20 21 14 14 26 24 23 20 16 19 20 19 16 9 8 3 3 5 2 1 3 3 3 11 13 16 15 14 16 16 18 18 19 19 18 17 17 17 16
12 12 10 10 14 16 11 10 15 13 25 23 19 15 11 10 12 15 10 7 1 4 7 7 7 5 8 10 10 8 10 12 13 12 13 15 17 18 18 18 18 17 16 18
10 9 8 7 7 9 13 15 16 10 8 6 8 18 7 9 9 12 10 6 3 5 6 6 9 12 6 12 14 13 12 12 12 13 13 14 15 15 17 18 18 16 16 16
10 10 10 9 8 10 7 6 5 3 12 19 10 5 2 5 4 10 15 15 14 14 10 10 11 12 12 13 11 12 14 12 15 15 14 12 14 16 18 17 17 15 15 16
13 10 11 10 7 6 9 19 9 11 7 15 20 20 21 9 11 11 10 10 10 10 12 11 8 9 9 7 9 1 3 10 14 13 13 14 15 14 14 14 14 14 15 14
4 10 9 13 14 7 3 8 8 7 11 14 15 16 16 14 11 10 11 11 12 12 14 14 10 8 8 7 7 8 5 6 8 9 13 13 12 12 11 14 13 14 14 14
3 7 8 7 12 13 14 14 11 8 8 10 11 12 14 13 14 16 16 14 13 14 14 14 12 10 8 8 6 5 7 6 3 9 10 11 12 12 13 13 13 11 12 12
14 13 12 14 13 18 13 15 16 13 9 10 9 12 11 11 14 16 16 17 15 13 16 17 16 12 9 9 8 7 5 4 6 7 9 8 10 11 12 8 10 10 11 11
14 19 16 17 16 17 17 16 16 18 15 15 15 13 13 12 13 14 13 14 15 11 15 18 16 12 13 8 6 7 6 6 7 7 8 9 9 10 10 6 4 7 2 4
13 19 15 18 25 21 22 23 25 19 15 14 15 16 17 11 13 14 13 13 15 10 14 16 16 14 14 11 6 3 7 7 8 8 7 8 8 9 9 10 7 15 11 8
Wind_Direction
208 209 215 215 226 229 241 226 227 243 225 219 226 144 151 173 259 260 181 174 182 185 184 177 185 179 174 172 167 172 178 183 164 171 185 209 206 192 211 253 232 176 177 188
203 223 214 223 218 227 235 249 228 238 190 105 273 158 161 159 186 221 185 199 175 179 181 180 184 181 182 175 173 174 185 178 174 178 182 199 194 202 199 208 225 180 182 206
216 211 222 218 223 220 229 237 248 227 143 228 231 286 175 197 198 201 168 192 178 174 183 182 180 188 184 178 175 177 182 180 182 178 186 188 204 224 188 205 208 188 204 203
220 229 200 219 223 219 223 227 247 259 173 200 215 190 241 221 197 180 182 174 180 177 182 181 183 191 185 182 179 175 179 185 182 195 185 196 203 205 222 189 201 194 192 204
216 216 230 207 224 219 230 224 232 254 263 251 191 222 225 204 218 187 184 176 181 180 180 180 187 187 189 183 180 179 178 184 186 193 215 191 202 213 201 223 203 202 181 192
227 213 226 232 211 226 222 229 225 235 251 248 244 194 230 220 199 209 186 194 186 182 179 182 180 182 191 185 180 179 180 185 189 191 205 216 194 209 209 207 221 193 186 190
217 228 218 224 215 212 217 217 219 215 216 237 238 247 250 233 181 215 192 190 199 179 178 178 176 180 182 189 183 181 179 187 191 194 198 212 216 198 224 216 204 209 195 198
218 213 221 203 221 206 212 216 220 216 218 220 233 232 232 259 247 206 193 183 193 192 174 175 175 177 181 188 183 182 182 186 190 200 199 202 212 207 211 220 225 213 219 210
222 228 205 231 209 223 200 215 222 231 223 228 224 221 247 222 244 250 244 190 183 187 179 175 174 176 178 185 188 187 182 188 191 193 199 199 202 212 205 214 217 241 212 251
246 252 222 205 216 217 227 196 216 229 235 232 224 231 214 216 222 214 223 230 200 181 182 174 176 174 178 185 188 189 185 188 193 196 198 202 202 205 214 200 213 221 232 231
226 250 250 218 204 205 211 223 207 225 233 240 251 246 231 198 201 209 214 192 225 186 179 180 176 175 181 187 184 189 192 188 193 198 200 204 205 202 207 212 206 213 212 222
268 231 246 252 211 208 211 218 216 219 211 244 261 259 19 189 179 189 227 184 188 221 177 176 173 176 185 180 186 190 192 197 195 197 200 205 206 208 206 209 211 207 214 204
344 251 230 241 248 198 209 209 220 221 219 218 240 246 104 58 86 182 186 201 207 185 189 173 180 180 183 184 186 189 192 196 197 195 199 204 206 207 208 206 209 212 204 213
300 261 253 229 232 230 193 216 209 224 211 217 219 241 135 111 106 116 158 186 202 188 189 182 187 179 182 186 189 190 190 195 194 198 199 204 209 209 207 208 209 208 211 206
265 266 259 262 240 242 194 209 215 214 230 208 220 217 140 135 138 178 81 68 113 176 185 157 195 187 181 177 184 193 195 192 196 195 201 204 204 208 207 210 212 211 210 213
330 278 279 275 272 276 271 199 210 220 221 224 224 216 173 137 110 117 128 106 82 68 80 83 104 68 98 187 179 184 195 195 195 197 202 197 199 199 207 209 212 212 212 215
318 331 298 258 249 254 256 236 227 209 219 219 222 226 166 146 141 146 140 93 105 162 153 122 34 154 185 202 177 181 193 199 200 197 195 197 194 199 201 205 208 211 213 212
291 304 301 284 291 244 256 231 249 286 211 212 221 233 209 148 130 115 117 124 152 319 345 338 308 253 206 217 215 171 173 184 199 206 199 192 192 196 197 203 205 209 209 214
259 286 294 277 247 251 258 222 214 228 226 330 310 217 103 75 74 88 67 48 195 228 254 279 266 277 265 197 210 168 181 185 188 203 210 203 195 194 197 203 205 205 209 212
221 246 276 291 284 231 261 291 223 135 198 1 257 263 158 141 182 64 36 31 23 8 357 349 343 332 3 355 351 169 178 180 195 204 207 200 206 201 203 202 204 205 208 215
203 218 235 245 265 311 330 356 360 197 50 19 22 27 34 67 38 44 23 20 14 1 339 338 320 310 312 320 328 21 244 217 203 197 196 206 203 211 203 200 203 206 209 212
293 204 207 247 242 223 71 303 30 61 59 30 22 25 14 16 14 11 3 3 356 356 343 329 310 300 294 301 313 293 296 253 210 185 190 202 205 204 204 200 200 205 208 213
185 268 292 254 249 348 346 342 24 32 2 36 5 358 357 356 353 354 353 350 354 355 331 314 305 293 264 267 279 269 268 274 275 192 191 197 200 198 211 198 203 203 206 214
323 290 324 309 281 298 308 334 330 334 332 323 340 332 338 332 343 341 337 336 341 341 325 314 298 290 289 236 242 228 247 254 237 212 200 193 194 197 200 212 194 204 207 211
315 314 308 294 279 291 289 284 286 292 299 302 311 306 314 316 320 318 316 315 310 324 314 310 316 319 316 298 241 219 227 216 253 214 203 201 203 187 192 125 345 217 163 258
335 324 312 301 305 305 297 304 314 306 287 283 272 275 278 284 292 302 301 302 296 315 313 301 301 305 307 312 289 306 297 225 211 222 209 200 206 187 189 145 108 44 45 39